| time (UTC) | temp F | wind direction | speed MPH | gust MPH | rain 1hr in | rain 24hr in | rain mn in | humidity % | barometer mb |
| 20260906190019 | 58 | 165 | 3.0 | 5.0 | 0.00 | 0.00 | 0.00 | 91 | 1031.8 |
| 20260906184518 | 58 | 164 | 5.0 | 6.0 | 0.00 | 0.00 | 0.00 | 90 | 1031.8 |
| 20260906183018 | 59 | 157 | 6.0 | 7.0 | 0.00 | 0.00 | 0.00 | 90 | 1031.7 |
| 20260906181519 | 59 | 153 | 6.0 | 8.0 | 0.00 | 0.00 | 0.00 | 89 | 1031.5 |
| 20260906180018 | 59 | 148 | 7.0 | 10.0 | 0.00 | 0.00 | 0.00 | 89 | 1031.3 |
| 20260906174518 | 59 | 153 | 8.0 | 10.0 | 0.00 | 0.00 | 0.00 | 88 | 1031.2 |
| 20260906173018 | 60 | 150 | 8.0 | 9.0 | 0.00 | 0.00 | 0.00 | 87 | 1031.2 |
| 20260906171518 | 60 | 148 | 7.0 | 9.0 | 0.00 | 0.00 | 0.00 | 86 | 1031.2 |
| 20260906170019 | 60 | 143 | 8.0 | 11.0 | 0.00 | 0.00 | 0.00 | 85 | 1031.1 |
| 20260906164517 | 61 | 146 | 10.0 | 14.0 | 0.00 | 0.00 | 0.00 | 84 | 1031.4 |
| 20260906163018 | 61 | 142 | 10.0 | 14.0 | 0.00 | 0.00 | 0.00 | 84 | 1031.5 |
| 20260906161518 | 62 | 144 | 11.0 | 16.0 | 0.00 | 0.00 | 0.00 | 82 | 1031.3 |
| 20260906153017 | 62 | 145 | 11.0 | 17.0 | 0.00 | 0.00 | 0.00 | 81 | 1031.4 |
| 20260906151517 | 62 | 138 | 11.0 | 15.0 | 0.00 | 0.00 | 0.00 | 82 | 1031.4 |
| 20260906150018 | 62 | 140 | 11.0 | 15.0 | 0.00 | 0.00 | 0.00 | 80 | 1031.4 |
| 20260906144517 | 62 | 148 | 14.0 | 20.0 | 0.00 | 0.00 | 0.00 | 80 | 1031.4 |
| 20260906143017 | 62 | 152 | 13.0 | 19.0 | 0.00 | 0.00 | 0.00 | 80 | 1031.4 |
| 20260906141516 | 62 | 136 | 11.0 | 17.0 | 0.00 | 0.00 | 0.00 | 79 | 1031.4 |
| 20260906140016 | 62 | 153 | 14.0 | 23.0 | 0.00 | 0.00 | 0.00 | 79 | 1031.3 |
| 20260906134516 | 63 | 164 | 15.0 | 25.0 | 0.00 | 0.00 | 0.00 | 79 | 1031.4 |
| 20260906133016 | 62 | 150 | 15.0 | 24.0 | 0.00 | 0.00 | 0.00 | 81 | 1031.3 |
| 20260906131516 | 62 | 151 | 13.0 | 22.0 | 0.00 | 0.00 | 0.00 | 80 | 1031.2 |
| 20260906124515 | 62 | 177 | 11.0 | 20.0 | 0.00 | 0.00 | 0.00 | 79 | 1031.3 |
| 20260906123016 | 62 | 162 | 16.0 | 26.0 | 0.00 | 0.00 | 0.00 | 80 | 1031.5 |
| 20260906120017 | 63 | 203 | 14.0 | 23.0 | 0.00 | 0.00 | 0.00 | 78 | 1031.4 |
| 20260906114515 | 62 | 172 | 13.0 | 20.0 | 0.00 | 0.00 | 0.00 | 82 | 1031.6 |
| 20260906113015 | 62 | 175 | 13.0 | 23.0 | 0.00 | 0.00 | 0.00 | 81 | 1031.7 |
| 20260906104514 | 62 | 167 | 11.0 | 18.0 | 0.00 | 0.00 | 0.00 | 77 | 1031.1 |
| 20260906103014 | 62 | 173 | 12.0 | 22.0 | 0.00 | 0.00 | 0.00 | 77 | 1031.1 |
| 20260906101514 | 62 | 182 | 9.0 | 14.0 | 0.00 | 0.00 | 0.00 | 80 | 1031.1 |
| 20260906100014 | 61 | 186 | 8.0 | 14.0 | 0.00 | 0.00 | 0.00 | 80 | 1031.2 |
| 20260906094514 | 61 | 186 | 8.0 | 16.0 | 0.00 | 0.00 | 0.00 | 80 | 1031.2 |
| 20260906093014 | 61 | 141 | 5.0 | 9.0 | 0.00 | 0.00 | 0.00 | 82 | 1031.3 |
| 20260906091514 | 60 | 170 | 6.0 | 9.0 | 0.00 | 0.00 | 0.00 | 82 | 1031.3 |
| 20260906090013 | 60 | 172 | 6.0 | 11.0 | 0.00 | 0.00 | 0.00 | 80 | 1031.3 |
| 20260906084514 | 62 | 128 | 4.0 | 9.0 | 0.00 | 0.00 | 0.00 | 78 | 1031.1 |
| 20260906083014 | 62 | 105 | 7.0 | 14.0 | 0.00 | 0.00 | 0.00 | 79 | 1031.2 |
| 20260906080013 | 61 | 197 | 5.0 | 13.0 | 0.00 | 0.00 | 0.00 | 74 | 1031.0 |
| 20260906074512 | 61 | 153 | 3.0 | 9.0 | 0.00 | 0.00 | 0.00 | 75 | 1031.0 |
| 20260906073019 | 61 | 179 | 3.0 | 6.0 | 0.00 | 0.00 | 0.00 | 74 | 1030.8 |
| 20260906071518 | 61 | 157 | 3.0 | 8.0 | 0.00 | 0.00 | 0.00 | 74 | 1030.8 |
| 20260906070019 | 60 | 138 | 4.0 | 8.0 | 0.00 | 0.00 | 0.00 | 77 | 1030.8 |
| 20260906064518 | 60 | 163 | 3.0 | 6.0 | 0.00 | 0.00 | 0.00 | 75 | 1030.6 |
| 20260906063017 | 60 | 179 | 3.0 | 5.0 | 0.00 | 0.00 | 0.00 | 73 | 1030.4 |
| 20260906061517 | 59 | 190 | 3.0 | 4.0 | 0.00 | 0.00 | 0.00 | 73 | 1030.3 |
| 20260906060019 | 60 | 117 | 3.0 | 6.0 | 0.00 | 0.00 | 0.00 | 68 | 1030.1 |
| 20260906054517 | 60 | 104 | 0.0 | 1.0 | 0.00 | 0.00 | 0.00 | 63 | 1029.8 |
| 20260906053017 | 59 | 103 | 2.0 | 4.0 | 0.00 | 0.00 | 0.00 | 68 | 1029.9 |
| 20260906051518 | 60 | 25 | 3.0 | 4.0 | 0.00 | 0.00 | 0.00 | 67 | 1029.8 |
| 20260906050017 | 60 | 1 | 2.0 | 4.0 | 0.00 | 0.00 | 0.00 | 63 | 1029.7 |
| 20260906044517 | 60 | 1 | 3.0 | 5.0 | 0.00 | 0.00 | 0.00 | 58 | 1029.6 |
| 20260906043016 | 60 | 331 | 3.0 | 5.0 | 0.00 | 0.00 | 0.00 | 62 | 1029.5 |
| 20260906041516 | 60 | 278 | 3.0 | 7.0 | 0.00 | 0.00 | 0.00 | 66 | 1029.5 |
| 20260906040017 | 60 | 1 | 5.0 | 9.0 | 0.00 | 0.00 | 0.00 | 58 | 1029.4 |
| 20260906034516 | 61 | 1 | 9.0 | 11.0 | 0.00 | 0.00 | 0.00 | 55 | 1029.1 |
| 20260906031516 | 61 | 1 | 8.0 | 11.0 | 0.00 | 0.00 | 0.00 | 58 | 1029.1 |
| 20260906030017 | 61 | 358 | 5.0 | 9.0 | 0.00 | 0.00 | 0.00 | 58 | 1029.2 |
| 20260906024515 | 61 | 1 | 8.0 | 11.0 | 0.00 | 0.00 | 0.00 | 57 | 1029.1 |
| 20260906023016 | 60 | 349 | 4.0 | 8.0 | 0.00 | 0.00 | 0.00 | 66 | 1029.4 |
| 20260906021516 | 61 | 1 | 7.0 | 10.0 | 0.00 | 0.00 | 0.00 | 58 | 1029.2 |
| 20260906020016 | 61 | 358 | 5.0 | 9.0 | 0.00 | 0.00 | 0.00 | 61 | 1029.0 |
| 20260906014515 | 61 | 1 | 6.0 | 10.0 | 0.00 | 0.00 | 0.00 | 58 | 1029.1 |
| 20260906013015 | 61 | 2 | 8.0 | 11.0 | 0.00 | 0.00 | 0.00 | 58 | 1029.0 |
| 20260906011515 | 61 | 1 | 9.0 | 12.0 | 0.00 | 0.00 | 0.00 | 62 | 1029.0 |
| 20260906010016 | 61 | 2 | 8.0 | 12.0 | 0.00 | 0.00 | 0.00 | 67 | 1029.1 |
| 20260906003014 | 61 | 1 | 8.0 | 11.0 | 0.00 | 0.00 | 0.00 | 65 | 1029.2 |
| 20260906001515 | 62 | 1 | 9.0 | 12.0 | 0.00 | 0.00 | 0.00 | 61 | 1029.1 |
| 20260906000015 | 62 | 1 | 9.0 | 11.0 | 0.00 | 0.00 | 0.00 | 65 | 1029.1 |
| 20260905234515 | 61 | 2 | 9.0 | 11.0 | 0.00 | 0.00 | 0.00 | 67 | 1029.2 |
| 20260905233014 | 62 | 357 | 6.0 | 9.0 | 0.00 | 0.00 | 0.00 | 65 | 1029.2 |
| 20260905231515 | 62 | 2 | 6.0 | 9.0 | 0.00 | 0.00 | 0.00 | 63 | 1029.1 |
| 20260905230015 | 61 | 3 | 6.0 | 9.0 | 0.00 | 0.00 | 0.00 | 69 | 1029.0 |
| 20260905224515 | 61 | 336 | 7.0 | 10.0 | 0.00 | 0.00 | 0.00 | 74 | 1029.0 |
| 20260905223014 | 61 | 334 | 6.0 | 10.0 | 0.00 | 0.00 | 0.00 | 74 | 1029.1 |
| 20260905221514 | 61 | 329 | 7.0 | 11.0 | 0.00 | 0.00 | 0.00 | 78 | 1028.9 |
| 20260905214514 | 62 | 359 | 6.0 | 10.0 | 0.00 | 0.00 | 0.00 | 78 | 1028.8 |
| 20260905213013 | 62 | 354 | 6.0 | 10.0 | 0.00 | 0.00 | 0.00 | 76 | 1028.8 |
| 20260905211514 | 63 | 342 | 6.0 | 9.0 | 0.00 | 0.00 | 0.00 | 74 | 1028.7 |
| 20260905210014 | 64 | 332 | 5.0 | 8.0 | 0.00 | 0.00 | 0.00 | 64 | 1028.6 |
| 20260905204513 | 64 | 1 | 9.0 | 13.0 | 0.00 | 0.00 | 0.00 | 60 | 1028.6 |
| 20260905203013 | 64 | 6 | 11.0 | 13.0 | 0.00 | 0.00 | 0.00 | 60 | 1028.5 |
| 20260905201513 | 64 | 7 | 11.0 | 15.0 | 0.00 | 0.00 | 0.00 | 61 | 1028.5 |
| 20260905194513 | 64 | 7 | 12.0 | 14.0 | 0.00 | 0.00 | 0.00 | 66 | 1028.2 |
| 20260905193015 | 64 | 2 | 12.0 | 14.0 | 0.00 | 0.00 | 0.00 | 68 | 1028.3 |